Time,TemperatureF,DewpointF,PressureIn,WindDirection,WindDirectionDegrees,WindSpeedMPH,WindSpeedGustMPH,Humidity,HourlyPrecipIn,Conditions,Clouds,dailyrainin,SoftwareType,DateUTC
2013-02-03 00:04:00,53.8,46.4,30.16,NNE,25,0.0,0.0,75,0.00,,---,0.00,cosweather0.1e,2013-02-03 08:04:00,
2013-02-03 00:09:00,53.8,46.4,30.16,NNE,25,0.0,0.0,75,0.00,,---,0.00,cosweather0.1e,2013-02-03 08:09:00,
2013-02-03 00:14:00,54.0,46.4,30.16,NNE,25,0.0,0.0,75,0.00,,---,0.00,cosweather0.1e,2013-02-03 08:14:00,
2013-02-03 00:19:00,53.8,46.4,30.20,NNE,25,0.0,0.0,75,0.00,,---,0.00,cosweather0.1e,2013-02-03 08:19:00,
2013-02-03 00:24:00,53.8,46.4,30.20,NNE,15,0.0,0.0,75,0.00,,---,0.00,cosweather0.1e,2013-02-03 08:24:00,
2013-02-03 00:29:00,53.4,46.4,30.20,North,4,0.0,0.0,75,0.00,,---,0.00,cosweather0.1e,2013-02-03 08:29:00,
2013-02-03 00:34:00,53.4,46.4,30.16,North,4,0.0,0.0,76,0.00,,---,0.00,cosweather0.1e,2013-02-03 08:34:00,
2013-02-03 00:39:00,53.6,46.4,30.16,North,4,0.0,0.0,75,0.00,,---,0.00,cosweather0.1e,2013-02-03 08:39:00,
2013-02-03 00:44:00,53.4,46.4,30.16,North,4,0.0,0.0,75,0.00,,---,0.00,cosweather0.1e,2013-02-03 08:44:00,
2013-02-03 00:49:00,53.4,46.4,30.16,North,4,0.0,0.0,76,0.00,,---,0.00,cosweather0.1e,2013-02-03 08:49:00,
2013-02-03 00:54:00,53.6,46.4,30.16,North,4,0.0,0.0,75,0.00,,---,0.00,cosweather0.1e,2013-02-03 08:54:00,
2013-02-03 00:59:00,53.6,46.4,30.16,North,4,0.0,0.0,75,0.00,,---,0.00,cosweather0.1e,2013-02-03 08:59:00,
2013-02-03 01:04:00,53.8,46.4,30.16,North,4,0.0,0.0,75,0.00,,---,0.00,cosweather0.1e,2013-02-03 09:04:00,
2013-02-03 01:09:00,53.8,46.4,30.16,North,4,0.0,0.0,75,0.00,,---,0.00,cosweather0.1e,2013-02-03 09:09:00,
2013-02-03 01:14:00,53.8,46.4,30.16,North,4,0.0,0.0,75,0.00,,---,0.00,cosweather0.1e,2013-02-03 09:14:00,
2013-02-03 01:19:00,53.8,46.4,30.16,North,4,0.0,0.0,75,0.00,,---,0.00,cosweather0.1e,2013-02-03 09:19:00,
2013-02-03 01:24:00,53.8,46.4,30.16,North,4,0.0,0.0,75,0.00,,---,0.00,cosweather0.1e,2013-02-03 09:24:00,
2013-02-03 01:29:00,53.8,46.4,30.16,North,4,0.0,0.0,75,0.00,,---,0.00,cosweather0.1e,2013-02-03 09:29:00,
2013-02-03 01:34:00,53.8,46.4,30.16,North,4,0.0,0.0,75,0.00,,---,0.00,cosweather0.1e,2013-02-03 09:34:00,
2013-02-03 01:39:00,53.8,46.4,30.16,North,4,0.0,0.0,75,0.00,,---,0.00,cosweather0.1e,2013-02-03 09:39:00,
2013-02-03 01:44:00,53.8,46.4,30.16,North,4,0.0,0.0,75,0.00,,---,0.00,cosweather0.1e,2013-02-03 09:44:00,
2013-02-03 01:49:00,53.6,46.4,30.16,North,4,0.0,0.0,75,0.00,,---,0.00,cosweather0.1e,2013-02-03 09:49:00,
2013-02-03 01:54:00,53.4,46.4,30.16,North,4,0.0,0.0,75,0.00,,---,0.00,cosweather0.1e,2013-02-03 09:54:00,
2013-02-03 01:59:00,53.4,46.4,30.16,North,4,0.0,0.0,75,0.00,,---,0.00,cosweather0.1e,2013-02-03 09:59:00,
2013-02-03 02:04:00,53.2,46.4,30.16,North,4,0.0,0.0,75,0.00,,---,0.00,cosweather0.1e,2013-02-03 10:04:00,
2013-02-03 02:09:00,53.2,46.4,30.16,North,4,0.0,0.0,75,0.00,,---,0.00,cosweather0.1e,2013-02-03 10:09:00,
2013-02-03 02:14:00,53.1,46.4,30.16,North,4,0.0,0.0,75,0.00,,---,0.00,cosweather0.1e,2013-02-03 10:14:00,
2013-02-03 02:19:00,53.1,46.4,30.16,North,4,0.0,0.0,75,0.00,,---,0.00,cosweather0.1e,2013-02-03 10:19:00,
2013-02-03 02:24:00,53.1,46.4,30.16,North,4,0.0,0.0,75,0.00,,---,0.00,cosweather0.1e,2013-02-03 10:24:00,
2013-02-03 02:29:00,52.9,46.4,30.16,NNE,20,0.0,0.0,75,0.00,,---,0.00,cosweather0.1e,2013-02-03 10:29:00,
2013-02-03 02:34:00,52.7,46.4,30.16,NNE,21,0.0,0.0,74,0.00,,---,0.00,cosweather0.1e,2013-02-03 10:34:00,
2013-02-03 02:39:00,52.7,46.4,30.16,NNE,20,0.0,0.0,75,0.00,,---,0.00,cosweather0.1e,2013-02-03 10:39:00,
2013-02-03 02:44:00,52.7,46.4,30.16,NNE,27,0.0,0.0,74,0.00,,---,0.00,cosweather0.1e,2013-02-03 10:44:00,
2013-02-03 02:49:00,52.5,44.6,30.16,NE,34,0.0,0.0,74,0.00,,---,0.00,cosweather0.1e,2013-02-03 10:49:00,
2013-02-03 02:54:00,52.5,44.6,30.16,NE,34,0.0,0.0,74,0.00,,---,0.00,cosweather0.1e,2013-02-03 10:54:00,
2013-02-03 02:59:00,52.5,44.6,30.16,NE,34,0.0,0.0,75,0.00,,---,0.00,cosweather0.1e,2013-02-03 10:59:00,
2013-02-03 03:04:00,52.5,44.6,30.16,NE,35,0.0,0.0,75,0.00,,---,0.00,cosweather0.1e,2013-02-03 11:04:00,
2013-02-03 03:09:00,52.7,46.4,30.16,NE,34,0.0,0.0,75,0.00,,---,0.00,cosweather0.1e,2013-02-03 11:09:00,
2013-02-03 03:14:00,52.7,46.4,30.16,NE,34,0.0,0.0,75,0.00,,---,0.00,cosweather0.1e,2013-02-03 11:14:00,
2013-02-03 03:19:00,52.9,46.4,30.16,NE,34,0.0,0.0,75,0.00,,---,0.00,cosweather0.1e,2013-02-03 11:19:00,
2013-02-03 03:24:00,53.1,46.4,30.16,NE,34,0.0,0.0,75,0.00,,---,0.00,cosweather0.1e,2013-02-03 11:24:00,
2013-02-03 03:30:00,53.1,46.4,30.16,NE,35,0.0,0.0,75,0.00,,---,0.00,cosweather0.1e,2013-02-03 11:30:00,
2013-02-03 03:35:00,52.9,46.4,30.16,NE,34,0.0,0.0,75,0.00,,---,0.00,cosweather0.1e,2013-02-03 11:35:00,
2013-02-03 03:40:00,52.7,46.4,30.16,NE,34,0.0,0.0,75,0.00,,---,0.00,cosweather0.1e,2013-02-03 11:40:00,
2013-02-03 03:45:00,52.5,44.6,30.16,NE,35,0.0,0.0,75,0.00,,---,0.00,cosweather0.1e,2013-02-03 11:45:00,
2013-02-03 03:50:00,52.5,44.6,30.16,NE,35,0.0,0.0,75,0.00,,---,0.00,cosweather0.1e,2013-02-03 11:50:00,
2013-02-03 03:55:00,52.7,46.4,30.16,NE,38,0.0,0.0,75,0.00,,---,0.00,cosweather0.1e,2013-02-03 11:55:00,
2013-02-03 04:00:00,52.7,46.4,30.16,NE,38,0.0,0.0,75,0.00,,---,0.00,cosweather0.1e,2013-02-03 12:00:00,
2013-02-03 04:05:00,52.7,46.4,30.16,NE,38,0.0,0.0,75,0.00,,---,0.00,cosweather0.1e,2013-02-03 12:05:00,
2013-02-03 04:10:00,52.7,46.4,30.16,NE,38,0.0,0.0,75,0.00,,---,0.00,cosweather0.1e,2013-02-03 12:10:00,
2013-02-03 04:15:00,52.7,46.4,30.16,NE,38,0.0,0.0,75,0.00,,---,0.00,cosweather0.1e,2013-02-03 12:15:00,
2013-02-03 04:20:00,52.5,44.6,30.16,NE,38,0.0,0.0,74,0.00,,---,0.00,cosweather0.1e,2013-02-03 12:20:00,
2013-02-03 04:25:00,52.5,44.6,30.16,NE,38,0.0,0.0,74,0.00,,---,0.00,cosweather0.1e,2013-02-03 12:25:00,
2013-02-03 04:30:00,52.3,44.6,30.16,NE,38,0.0,0.0,74,0.00,,---,0.00,cosweather0.1e,2013-02-03 12:30:00,
2013-02-03 04:35:00,52.2,44.6,30.16,NE,46,0.0,0.0,74,0.00,,---,0.00,cosweather0.1e,2013-02-03 12:35:00,
2013-02-03 04:40:00,52.0,44.6,30.16,NE,45,0.0,0.0,74,0.00,,---,0.00,cosweather0.1e,2013-02-03 12:40:00,
2013-02-03 04:45:00,51.8,44.6,30.16,NE,46,0.0,0.0,74,0.00,,---,0.00,cosweather0.1e,2013-02-03 12:45:00,
2013-02-03 04:50:00,51.6,44.6,30.16,NE,45,0.0,0.0,74,0.00,,---,0.00,cosweather0.1e,2013-02-03 12:50:00,
2013-02-03 04:55:00,51.6,44.6,30.16,NE,45,0.0,0.0,74,0.00,,---,0.00,cosweather0.1e,2013-02-03 12:55:00,
2013-02-03 05:00:00,51.6,44.6,30.16,NE,49,0.0,0.0,74,0.00,,---,0.00,cosweather0.1e,2013-02-03 13:00:00,
2013-02-03 05:05:00,51.4,42.8,30.16,NE,51,0.0,0.0,73,0.00,,---,0.00,cosweather0.1e,2013-02-03 13:05:00,
2013-02-03 05:10:00,51.3,44.6,30.16,NE,51,0.0,0.0,74,0.00,,---,0.00,cosweather0.1e,2013-02-03 13:10:00,
2013-02-03 05:15:00,51.3,44.6,30.16,NE,51,0.0,0.0,74,0.00,,---,0.00,cosweather0.1e,2013-02-03 13:15:00,
2013-02-03 05:20:00,51.6,44.6,30.16,NE,51,0.0,0.0,74,0.00,,---,0.00,cosweather0.1e,2013-02-03 13:20:00,
2013-02-03 05:25:00,51.8,44.6,30.16,NE,51,0.0,0.0,74,0.00,,---,0.00,cosweather0.1e,2013-02-03 13:25:00,
2013-02-03 05:30:00,51.8,44.6,30.16,NE,51,0.0,0.0,74,0.00,,---,0.00,cosweather0.1e,2013-02-03 13:30:00,
2013-02-03 05:35:00,51.8,44.6,30.16,NE,51,0.0,0.0,74,0.00,,---,0.00,cosweather0.1e,2013-02-03 13:35:00,
2013-02-03 05:40:00,51.8,42.8,30.16,NE,51,0.0,0.0,73,0.00,,---,0.00,cosweather0.1e,2013-02-03 13:40:00,
2013-02-03 05:45:00,52.0,44.6,30.16,NE,51,0.0,0.0,74,0.00,,---,0.00,cosweather0.1e,2013-02-03 13:45:00,
2013-02-03 05:50:00,52.0,44.6,30.16,NE,51,0.0,0.0,74,0.00,,---,0.00,cosweather0.1e,2013-02-03 13:50:00,
2013-02-03 05:55:00,52.0,44.6,30.16,NE,51,0.0,0.0,74,0.00,,---,0.00,cosweather0.1e,2013-02-03 13:55:00,
2013-02-03 06:00:00,52.2,44.6,30.16,NE,51,0.0,0.0,74,0.00,,---,0.00,cosweather0.1e,2013-02-03 14:00:00,
2013-02-03 06:05:00,52.2,44.6,30.16,NE,51,0.0,0.0,74,0.00,,---,0.00,cosweather0.1e,2013-02-03 14:05:00,
2013-02-03 06:10:00,52.3,44.6,30.16,NE,51,0.0,0.0,74,0.00,,---,0.00,cosweather0.1e,2013-02-03 14:10:00,
2013-02-03 06:16:00,52.3,44.6,30.16,NE,51,0.0,0.0,74,0.00,,---,0.00,cosweather0.1e,2013-02-03 14:16:00,
2013-02-03 06:21:00,52.2,44.6,30.16,NE,51,0.0,0.0,74,0.00,,---,0.00,cosweather0.1e,2013-02-03 14:21:00,
2013-02-03 06:26:00,52.2,44.6,30.16,NE,51,0.0,0.0,74,0.00,,---,0.00,cosweather0.1e,2013-02-03 14:26:00,
2013-02-03 06:31:00,52.2,44.6,30.16,NE,51,0.0,0.0,74,0.00,,---,0.00,cosweather0.1e,2013-02-03 14:31:00,
2013-02-03 06:36:00,52.0,44.6,30.16,NE,51,0.0,0.0,74,0.00,,---,0.00,cosweather0.1e,2013-02-03 14:36:00,
2013-02-03 06:41:00,52.0,44.6,30.16,NE,51,0.0,0.0,74,0.00,,---,0.00,cosweather0.1e,2013-02-03 14:41:00,
2013-02-03 06:46:00,52.0,44.6,30.16,NE,51,0.0,0.0,74,0.00,,---,0.00,cosweather0.1e,2013-02-03 14:46:00,
2013-02-03 06:51:00,52.0,44.6,30.16,NE,51,0.0,0.0,74,0.00,,---,0.00,cosweather0.1e,2013-02-03 14:51:00,
2013-02-03 06:56:00,52.2,44.6,30.16,NE,51,0.0,0.0,74,0.00,,---,0.00,cosweather0.1e,2013-02-03 14:56:00,
2013-02-03 07:01:00,52.0,44.6,30.16,NE,51,0.0,0.0,74,0.00,,---,0.00,cosweather0.1e,2013-02-03 15:01:00,
2013-02-03 07:06:00,51.8,44.6,30.16,NE,51,0.0,0.0,74,0.00,,---,0.00,cosweather0.1e,2013-02-03 15:06:00,
2013-02-03 07:11:00,51.8,44.6,30.16,NE,51,0.0,0.0,74,0.00,,---,0.00,cosweather0.1e,2013-02-03 15:11:00,
2013-02-03 07:16:00,51.8,44.6,30.16,NE,51,0.0,0.0,74,0.00,,---,0.00,cosweather0.1e,2013-02-03 15:16:00,
2013-02-03 07:21:00,51.8,44.6,30.16,NE,51,0.0,0.0,74,0.00,,---,0.00,cosweather0.1e,2013-02-03 15:21:00,
2013-02-03 07:26:00,51.8,44.6,30.16,NE,50,0.0,0.0,74,0.00,,---,0.00,cosweather0.1e,2013-02-03 15:26:00,
2013-02-03 07:31:00,52.0,44.6,30.16,NE,51,0.0,0.0,74,0.00,,---,0.00,cosweather0.1e,2013-02-03 15:31:00,
2013-02-03 07:36:00,51.8,44.6,30.16,NE,51,0.0,0.0,74,0.00,,---,0.00,cosweather0.1e,2013-02-03 15:36:00,
2013-02-03 07:41:00,52.0,44.6,30.16,NE,51,0.0,0.0,74,0.00,,---,0.00,cosweather0.1e,2013-02-03 15:41:00,
2013-02-03 07:46:00,52.0,44.6,30.16,NE,51,0.0,0.0,74,0.00,,---,0.00,cosweather0.1e,2013-02-03 15:46:00,
2013-02-03 07:51:00,52.0,44.6,30.16,NE,51,0.0,0.0,74,0.00,,---,0.00,cosweather0.1e,2013-02-03 15:51:00,
2013-02-03 07:56:00,52.0,44.6,30.16,NE,51,0.0,0.0,74,0.00,,---,0.00,cosweather0.1e,2013-02-03 15:56:00,
2013-02-03 08:01:00,52.2,44.6,30.16,NE,51,0.0,0.0,74,0.00,,---,0.00,cosweather0.1e,2013-02-03 16:01:00,
2013-02-03 08:06:00,52.2,44.6,30.16,NE,51,0.0,0.0,74,0.00,,---,0.00,cosweather0.1e,2013-02-03 16:06:00,
2013-02-03 08:11:00,52.2,44.6,30.16,NE,51,0.0,0.0,74,0.00,,---,0.00,cosweather0.1e,2013-02-03 16:11:00,
2013-02-03 08:16:00,52.3,44.6,30.16,NE,52,0.0,0.0,74,0.00,,---,0.00,cosweather0.1e,2013-02-03 16:16:00,
2013-02-03 08:21:00,52.3,44.6,30.16,NE,51,0.0,0.0,74,0.00,,---,0.00,cosweather0.1e,2013-02-03 16:21:00,
2013-02-03 08:26:00,52.3,44.6,30.16,NE,51,0.0,0.0,74,0.00,,---,0.00,cosweather0.1e,2013-02-03 16:26:00,
2013-02-03 08:31:00,52.3,44.6,30.16,NE,51,0.0,0.0,74,0.00,,---,0.00,cosweather0.1e,2013-02-03 16:31:00,
2013-02-03 08:36:00,52.3,44.6,30.16,SE,140,0.0,0.0,74,0.00,,---,0.00,cosweather0.1e,2013-02-03 16:36:00,
2013-02-03 08:41:00,52.3,44.6,30.16,SSW,209,0.0,0.0,74,0.00,,---,0.00,cosweather0.1e,2013-02-03 16:41:00,
2013-02-03 08:46:00,52.3,44.6,30.16,SSW,197,0.0,0.0,74,0.00,,---,0.00,cosweather0.1e,2013-02-03 16:46:00,
2013-02-03 08:51:00,52.2,44.6,30.16,South,181,0.0,0.0,74,0.00,,---,0.00,cosweather0.1e,2013-02-03 16:51:00,
2013-02-03 08:56:00,52.3,44.6,30.16,SSW,200,0.0,0.0,74,0.00,,---,0.00,cosweather0.1e,2013-02-03 16:56:00,
2013-02-03 09:01:00,52.3,44.6,30.16,SSW,196,0.0,0.0,74,0.00,,---,0.00,cosweather0.1e,2013-02-03 17:01:00,
2013-02-03 09:06:00,52.2,42.8,30.16,South,186,0.0,0.0,73,0.00,,---,0.00,cosweather0.1e,2013-02-03 17:06:00,
2013-02-03 09:11:00,52.3,42.8,30.16,South,186,0.0,0.0,73,0.00,,---,0.00,cosweather0.1e,2013-02-03 17:11:00,
2013-02-03 09:16:00,52.3,42.8,30.16,South,186,0.0,0.0,73,0.00,,---,0.00,cosweather0.1e,2013-02-03 17:16:00,
2013-02-03 09:21:00,52.5,42.8,30.16,SW,235,0.0,0.0,73,0.00,,---,0.00,cosweather0.1e,2013-02-03 17:21:00,
2013-02-03 09:26:00,52.5,42.8,30.16,SSW,193,0.0,0.0,73,0.00,,---,0.00,cosweather0.1e,2013-02-03 17:26:00,
2013-02-03 09:31:00,52.5,42.8,30.16,SSW,211,0.0,2.7,73,0.00,,---,0.00,cosweather0.1e,2013-02-03 17:31:00,
2013-02-03 09:36:00,52.5,42.8,30.16,SSW,204,0.0,2.7,73,0.00,,---,0.00,cosweather0.1e,2013-02-03 17:36:00,
2013-02-03 09:41:00,52.7,44.6,30.16,SSW,205,0.0,0.0,73,0.00,,---,0.00,cosweather0.1e,2013-02-03 17:41:00,
2013-02-03 09:46:00,52.7,44.6,30.16,SSW,195,0.0,3.6,72,0.00,,---,0.00,cosweather0.1e,2013-02-03 17:46:00,
2013-02-03 09:52:00,52.7,44.6,30.16,SSW,206,0.0,0.0,72,0.00,,---,0.00,cosweather0.1e,2013-02-03 17:52:00,
2013-02-03 09:57:00,52.9,44.6,30.16,SSW,210,0.0,0.0,72,0.00,,---,0.00,cosweather0.1e,2013-02-03 17:57:00,
2013-02-03 10:02:00,52.9,44.6,30.16,SSW,210,0.0,0.0,72,0.00,,---,0.00,cosweather0.1e,2013-02-03 18:02:00,
2013-02-03 10:07:00,53.1,44.6,30.16,SSW,193,0.0,0.0,72,0.00,,---,0.00,cosweather0.1e,2013-02-03 18:07:00,
2013-02-03 10:12:00,53.1,44.6,30.16,South,184,0.0,0.0,71,0.00,,---,0.00,cosweather0.1e,2013-02-03 18:12:00,
2013-02-03 10:17:00,53.2,44.6,30.16,South,185,0.0,0.0,71,0.00,,---,0.00,cosweather0.1e,2013-02-03 18:17:00,
2013-02-03 10:22:00,53.2,44.6,30.16,South,190,0.0,0.0,71,0.00,,---,0.00,cosweather0.1e,2013-02-03 18:22:00,
2013-02-03 10:27:00,53.2,44.6,30.16,NW,323,0.0,0.0,69,0.00,,---,0.00,cosweather0.1e,2013-02-03 18:27:00,
2013-02-03 10:32:00,53.4,44.6,30.16,WSW,237,0.0,0.0,69,0.00,,---,0.00,cosweather0.1e,2013-02-03 18:32:00,
2013-02-03 10:37:00,53.6,44.6,30.16,SW,233,0.0,4.0,69,0.00,,---,0.00,cosweather0.1e,2013-02-03 18:37:00,
2013-02-03 10:42:00,53.8,44.6,30.16,WSW,247,0.0,0.0,69,0.00,,---,0.00,cosweather0.1e,2013-02-03 18:42:00,
2013-02-03 10:47:00,54.1,42.8,30.20,SSW,197,0.0,0.0,68,0.00,,---,0.00,cosweather0.1e,2013-02-03 18:47:00,
2013-02-03 10:52:00,54.1,42.8,30.20,NW,315,0.0,3.1,67,0.00,,---,0.00,cosweather0.1e,2013-02-03 18:52:00,
2013-02-03 10:57:00,54.3,42.8,30.20,West,281,0.0,2.7,66,0.00,,---,0.00,cosweather0.1e,2013-02-03 18:57:00,
2013-02-03 11:02:00,54.3,42.8,30.20,NW,313,0.0,2.7,66,0.00,,---,0.00,cosweather0.1e,2013-02-03 19:02:00,
2013-02-03 11:07:00,54.5,44.6,30.20,West,279,0.0,3.6,65,0.00,,---,0.00,cosweather0.1e,2013-02-03 19:07:00,
2013-02-03 11:12:00,55.2,44.6,30.20,North,6,0.0,0.0,66,0.00,,---,0.00,cosweather0.1e,2013-02-03 19:12:00,
2013-02-03 11:17:00,56.1,44.6,30.16,WSW,241,0.0,3.6,65,0.00,,---,0.00,cosweather0.1e,2013-02-03 19:17:00,
2013-02-03 11:22:00,56.7,44.6,30.16,WSW,240,0.0,3.1,63,0.00,,---,0.00,cosweather0.1e,2013-02-03 19:22:00,
2013-02-03 11:27:00,57.4,44.6,30.16,SW,218,0.0,0.0,62,0.00,,---,0.00,cosweather0.1e,2013-02-03 19:27:00,
2013-02-03 11:32:00,57.9,44.6,30.16,SE,142,0.0,3.1,62,0.00,,---,0.00,cosweather0.1e,2013-02-03 19:32:00,
2013-02-03 11:37:00,58.8,46.4,30.16,East,81,0.0,4.0,61,0.00,,---,0.00,cosweather0.1e,2013-02-03 19:37:00,
2013-02-03 11:42:00,58.8,44.6,30.16,South,189,0.0,3.1,58,0.00,,---,0.00,cosweather0.1e,2013-02-03 19:42:00,
2013-02-03 11:47:00,59.2,42.8,30.12,SW,234,0.0,2.7,54,0.00,,---,0.00,cosweather0.1e,2013-02-03 19:47:00,
2013-02-03 11:52:00,59.4,42.8,30.12,South,181,0.0,3.6,53,0.00,,---,0.00,cosweather0.1e,2013-02-03 19:52:00,
2013-02-03 11:57:00,59.9,42.8,30.12,ENE,62,0.0,4.9,52,0.00,,---,0.00,cosweather0.1e,2013-02-03 19:57:00,
2013-02-03 12:02:00,60.1,42.8,30.12,SSW,194,0.0,4.9,50,0.00,,---,0.00,cosweather0.1e,2013-02-03 20:02:00,
2013-02-03 12:07:00,60.4,42.8,30.12,South,191,0.0,3.6,50,0.00,,---,0.00,cosweather0.1e,2013-02-03 20:07:00,
2013-02-03 12:12:00,60.8,41.0,30.12,SW,220,0.0,4.5,49,0.00,,---,0.00,cosweather0.1e,2013-02-03 20:12:00,
2013-02-03 12:17:00,61.0,41.0,30.12,SW,235,0.0,5.8,48,0.00,,---,0.00,cosweather0.1e,2013-02-03 20:17:00,
2013-02-03 12:22:00,61.3,41.0,30.12,SSW,213,0.0,6.3,48,0.00,,---,0.00,cosweather0.1e,2013-02-03 20:22:00,
2013-02-03 12:27:00,61.7,42.8,30.12,WNW,303,0.0,0.0,48,0.00,,---,0.00,cosweather0.1e,2013-02-03 20:27:00,
2013-02-03 12:32:00,61.7,42.8,30.08,NNW,346,0.0,2.7,47,0.00,,---,0.00,cosweather0.1e,2013-02-03 20:32:00,
2013-02-03 12:37:00,61.3,39.2,30.08,NE,37,0.0,2.2,45,0.00,,---,0.00,cosweather0.1e,2013-02-03 20:37:00,
2013-02-03 12:42:00,61.3,39.2,30.08,West,279,0.0,3.6,46,0.00,,---,0.00,cosweather0.1e,2013-02-03 20:42:00,
2013-02-03 12:47:00,62.2,42.8,30.08,WSW,251,0.0,2.2,48,0.00,,---,0.00,cosweather0.1e,2013-02-03 20:47:00,
2013-02-03 12:52:00,62.6,41.0,30.08,NNE,14,0.0,2.2,45,0.00,,---,0.00,cosweather0.1e,2013-02-03 20:52:00,
2013-02-03 12:57:00,62.4,41.0,30.08,SSW,193,0.0,3.1,46,0.00,,---,0.00,cosweather0.1e,2013-02-03 20:57:00,
2013-02-03 13:02:00,63.1,41.0,30.08,NW,316,0.0,3.1,45,0.00,,---,0.00,cosweather0.1e,2013-02-03 21:02:00,
2013-02-03 13:07:00,63.9,42.8,30.08,SW,216,0.0,0.0,46,0.00,,---,0.00,cosweather0.1e,2013-02-03 21:07:00,
2013-02-03 13:12:00,64.0,42.8,30.08,West,273,0.0,4.0,44,0.00,,---,0.00,cosweather0.1e,2013-02-03 21:12:00,
2013-02-03 13:17:00,64.6,42.8,30.08,SW,226,0.0,4.0,44,0.00,,---,0.00,cosweather0.1e,2013-02-03 21:17:00,
2013-02-03 13:22:00,65.1,41.0,30.08,WSW,239,0.0,4.0,43,0.00,,---,0.00,cosweather0.1e,2013-02-03 21:22:00,
2013-02-03 13:27:00,65.5,41.0,30.08,West,271,0.0,3.1,41,0.00,,---,0.00,cosweather0.1e,2013-02-03 21:27:00,
2013-02-03 13:32:00,65.1,39.2,30.08,NW,308,0.0,3.1,38,0.00,,---,0.00,cosweather0.1e,2013-02-03 21:32:00,
2013-02-03 13:37:00,64.8,39.2,30.08,West,268,0.0,4.0,39,0.00,,---,0.00,cosweather0.1e,2013-02-03 21:37:00,
2013-02-03 13:42:00,64.8,39.2,30.08,West,278,0.0,4.0,39,0.00,,---,0.00,cosweather0.1e,2013-02-03 21:42:00,
2013-02-03 13:47:00,65.1,41.0,30.08,WSW,242,0.0,0.0,41,0.00,,---,0.00,cosweather0.1e,2013-02-03 21:47:00,
2013-02-03 13:52:00,65.5,41.0,30.08,West,279,0.0,3.1,39,0.00,,---,0.00,cosweather0.1e,2013-02-03 21:52:00,
2013-02-03 13:57:00,65.1,37.4,30.08,West,280,0.0,5.4,37,0.00,,---,0.00,cosweather0.1e,2013-02-03 21:57:00,
2013-02-03 14:02:00,64.9,39.2,30.08,NNW,327,0.0,5.4,38,0.00,,---,0.00,cosweather0.1e,2013-02-03 22:02:00,
2013-02-03 14:07:00,64.9,39.2,30.08,NW,305,0.0,2.7,39,0.00,,---,0.00,cosweather0.1e,2013-02-03 22:07:00,
2013-02-03 14:12:00,65.1,39.2,30.08,WSW,253,0.0,2.2,40,0.00,,---,0.00,cosweather0.1e,2013-02-03 22:12:00,
2013-02-03 14:17:00,65.5,39.2,30.04,NW,304,0.0,4.0,38,0.00,,---,0.00,cosweather0.1e,2013-02-03 22:17:00,
2013-02-03 14:22:00,65.7,41.0,30.04,North,353,0.0,3.1,39,0.00,,---,0.00,cosweather0.1e,2013-02-03 22:22:00,
2013-02-03 14:27:00,66.0,41.0,30.04,WSW,258,0.0,0.0,39,0.00,,---,0.00,cosweather0.1e,2013-02-03 22:27:00,
2013-02-03 14:32:00,66.6,41.0,30.04,NNW,333,0.0,4.0,39,0.00,,---,0.00,cosweather0.1e,2013-02-03 22:32:00,
2013-02-03 14:37:00,66.9,41.0,30.04,NW,323,0.0,3.1,39,0.00,,---,0.00,cosweather0.1e,2013-02-03 22:37:00,
2013-02-03 14:42:00,67.1,41.0,30.04,WNW,303,0.0,2.2,38,0.00,,---,0.00,cosweather0.1e,2013-02-03 22:42:00,
2013-02-03 14:47:00,67.1,41.0,30.04,SW,214,0.0,4.9,37,0.00,,---,0.00,cosweather0.1e,2013-02-03 22:47:00,
2013-02-03 14:53:00,66.9,39.2,30.04,WNW,298,0.0,3.1,38,0.00,,---,0.00,cosweather0.1e,2013-02-03 22:53:00,
2013-02-03 14:57:00,67.1,41.0,30.04,West,280,0.0,6.3,38,0.00,,---,0.00,cosweather0.1e,2013-02-03 22:57:00,
2013-02-03 15:02:00,66.9,39.2,30.04,NNW,327,0.0,5.4,37,0.00,,---,0.00,cosweather0.1e,2013-02-03 23:02:00,
2013-02-03 15:07:00,66.7,39.2,30.04,NW,315,0.0,5.4,37,0.00,,---,0.00,cosweather0.1e,2013-02-03 23:07:00,
2013-02-03 15:13:00,66.0,39.2,30.04,NW,309,0.0,4.0,37,0.00,,---,0.00,cosweather0.1e,2013-02-03 23:13:00,
2013-02-03 15:18:00,66.0,39.2,30.04,NW,313,0.0,5.4,38,0.00,,---,0.00,cosweather0.1e,2013-02-03 23:18:00,
2013-02-03 15:23:00,66.0,41.0,30.04,West,260,0.0,4.9,39,0.00,,---,0.00,cosweather0.1e,2013-02-03 23:23:00,
2013-02-03 15:28:00,65.8,41.0,30.04,South,191,0.0,4.0,40,0.00,,---,0.00,cosweather0.1e,2013-02-03 23:28:00,
2013-02-03 15:33:00,65.5,41.0,30.04,SSE,164,0.0,3.6,40,0.00,,---,0.00,cosweather0.1e,2013-02-03 23:33:00,
2013-02-03 15:38:00,65.3,41.0,30.04,WNW,295,0.0,4.0,41,0.00,,---,0.00,cosweather0.1e,2013-02-03 23:38:00,
2013-02-03 15:43:00,64.8,41.0,30.04,West,267,0.0,3.1,41,0.00,,---,0.00,cosweather0.1e,2013-02-03 23:43:00,
2013-02-03 15:48:00,64.6,41.0,30.04,SW,216,0.0,3.6,42,0.00,,---,0.00,cosweather0.1e,2013-02-03 23:48:00,
2013-02-03 15:53:00,64.6,41.0,30.04,NW,312,0.0,4.0,43,0.00,,---,0.00,cosweather0.1e,2013-02-03 23:53:00,
2013-02-03 15:58:00,64.4,41.0,30.04,WNW,287,0.0,5.4,43,0.00,,---,0.00,cosweather0.1e,2013-02-03 23:58:00,
2013-02-03 16:03:00,64.2,41.0,30.04,NW,310,0.0,2.2,43,0.00,,---,0.00,cosweather0.1e,2013-02-04 00:03:00,
2013-02-03 16:08:00,63.5,42.8,30.04,NNW,332,0.0,4.0,44,0.00,,---,0.00,cosweather0.1e,2013-02-04 00:08:00,
2013-02-03 16:13:00,63.3,41.0,30.04,SW,231,0.0,2.2,44,0.00,,---,0.00,cosweather0.1e,2013-02-04 00:13:00,
2013-02-03 16:18:00,63.5,42.8,30.00,SW,236,0.0,6.3,44,0.00,,---,0.00,cosweather0.1e,2013-02-04 00:18:00,
2013-02-03 16:23:00,63.0,41.0,30.00,NW,326,0.0,4.0,45,0.00,,---,0.00,cosweather0.1e,2013-02-04 00:23:00,
2013-02-03 16:29:00,62.6,41.0,30.00,NW,326,0.0,2.7,45,0.00,,---,0.00,cosweather0.1e,2013-02-04 00:29:00,
2013-02-03 16:34:00,62.6,41.0,30.04,SW,220,0.0,3.1,45,0.00,,---,0.00,cosweather0.1e,2013-02-04 00:34:00,
2013-02-03 16:39:00,62.6,41.0,30.04,NW,308,0.0,3.6,46,0.00,,---,0.00,cosweather0.1e,2013-02-04 00:39:00,
2013-02-03 16:44:00,62.2,41.0,30.04,SW,227,0.0,3.6,46,0.00,,---,0.00,cosweather0.1e,2013-02-04 00:44:00,
2013-02-03 16:49:00,61.9,42.8,30.00,NNW,336,0.0,4.0,47,0.00,,---,0.00,cosweather0.1e,2013-02-04 00:49:00,
2013-02-03 16:54:00,61.3,41.0,30.00,NW,319,0.0,2.7,47,0.00,,---,0.00,cosweather0.1e,2013-02-04 00:54:00,
2013-02-03 16:59:00,61.0,41.0,30.00,NW,307,0.0,2.7,47,0.00,,---,0.00,cosweather0.1e,2013-02-04 00:59:00,
2013-02-03 17:04:00,60.8,41.0,30.04,WNW,300,0.0,4.9,48,0.00,,---,0.00,cosweather0.1e,2013-02-04 01:04:00,
2013-02-03 17:09:00,60.6,41.0,30.04,NW,315,0.0,2.7,48,0.00,,---,0.00,cosweather0.1e,2013-02-04 01:09:00,
2013-02-03 17:14:00,60.3,41.0,30.04,NNW,327,0.0,3.1,48,0.00,,---,0.00,cosweather0.1e,2013-02-04 01:14:00,
2013-02-03 17:19:00,59.9,41.0,30.04,NNW,336,0.0,0.0,49,0.00,,---,0.00,cosweather0.1e,2013-02-04 01:19:00,
2013-02-03 17:24:00,59.5,39.2,30.04,NW,326,0.0,4.9,49,0.00,,---,0.00,cosweather0.1e,2013-02-04 01:24:00,
2013-02-03 17:29:00,59.2,41.0,30.04,NW,322,0.0,2.2,50,0.00,,---,0.00,cosweather0.1e,2013-02-04 01:29:00,
2013-02-03 17:34:00,59.2,41.0,30.04,NW,326,0.0,3.1,50,0.00,,---,0.00,cosweather0.1e,2013-02-04 01:34:00,
2013-02-03 17:39:00,58.6,41.0,30.04,NNW,331,0.0,4.0,52,0.00,,---,0.00,cosweather0.1e,2013-02-04 01:39:00,
2013-02-03 17:44:00,58.3,42.8,30.04,NW,323,0.0,4.9,54,0.00,,---,0.00,cosweather0.1e,2013-02-04 01:44:00,
2013-02-03 17:49:00,57.9,41.0,30.04,NNE,28,0.0,3.1,55,0.00,,---,0.00,cosweather0.1e,2013-02-04 01:49:00,
2013-02-03 17:54:00,57.7,41.0,30.04,North,8,0.0,2.7,55,0.00,,---,0.00,cosweather0.1e,2013-02-04 01:54:00,
2013-02-03 17:59:00,57.6,41.0,30.04,North,7,0.0,4.9,55,0.00,,---,0.00,cosweather0.1e,2013-02-04 01:59:00,
2013-02-03 18:04:00,57.4,42.8,30.04,NNE,21,0.0,3.6,57,0.00,,---,0.00,cosweather0.1e,2013-02-04 02:04:00,
2013-02-03 18:09:00,57.0,42.8,30.04,NE,51,0.0,3.1,59,0.00,,---,0.00,cosweather0.1e,2013-02-04 02:09:00,
2013-02-03 18:14:00,56.8,42.8,30.04,NNE,32,0.0,2.2,59,0.00,,---,0.00,cosweather0.1e,2013-02-04 02:14:00,
2013-02-03 18:20:00,56.5,42.8,30.04,NNE,32,0.0,4.0,59,0.00,,---,0.00,cosweather0.1e,2013-02-04 02:20:00,
2013-02-03 18:25:00,56.1,41.0,30.04,NE,49,0.0,3.1,59,0.00,,---,0.00,cosweather0.1e,2013-02-04 02:25:00,
2013-02-03 18:30:00,55.8,41.0,30.04,NNE,31,0.0,4.9,60,0.00,,---,0.00,cosweather0.1e,2013-02-04 02:30:00,
2013-02-03 18:35:00,55.4,42.8,30.04,NE,41,0.0,5.4,62,0.00,,---,0.00,cosweather0.1e,2013-02-04 02:35:00,
2013-02-03 18:40:00,54.9,42.8,30.04,NNE,18,0.0,4.9,64,0.00,,---,0.00,cosweather0.1e,2013-02-04 02:40:00,
2013-02-03 18:45:00,54.5,44.6,30.04,ENE,62,0.0,3.1,65,0.00,,---,0.00,cosweather0.1e,2013-02-04 02:45:00,
2013-02-03 18:50:00,54.3,42.8,30.04,NNE,29,0.0,5.8,66,0.00,,---,0.00,cosweather0.1e,2013-02-04 02:50:00,
2013-02-03 18:55:00,54.0,42.8,30.04,NE,44,0.0,3.6,66,0.00,,---,0.00,cosweather0.1e,2013-02-04 02:55:00,
2013-02-03 19:00:00,53.8,42.8,30.04,NE,39,0.0,4.0,67,0.00,,---,0.00,cosweather0.1e,2013-02-04 03:00:00,
2013-02-03 19:05:00,53.8,42.8,30.04,NNE,32,0.0,4.9,67,0.00,,---,0.00,cosweather0.1e,2013-02-04 03:05:00,
2013-02-03 19:10:00,53.8,42.8,30.04,NNE,29,0.0,4.0,67,0.00,,---,0.00,cosweather0.1e,2013-02-04 03:10:00,
2013-02-03 19:15:00,54.1,42.8,30.04,NNE,18,0.0,2.7,67,0.00,,---,0.00,cosweather0.1e,2013-02-04 03:15:00,
2013-02-03 19:20:00,54.3,42.8,30.04,NNE,17,0.0,0.0,67,0.00,,---,0.00,cosweather0.1e,2013-02-04 03:20:00,
2013-02-03 19:25:00,54.5,44.6,30.04,NNE,28,0.0,2.7,67,0.00,,---,0.00,cosweather0.1e,2013-02-04 03:25:00,
2013-02-03 19:30:00,54.7,44.6,30.04,NNE,23,0.0,0.0,66,0.00,,---,0.00,cosweather0.1e,2013-02-04 03:30:00,
2013-02-03 19:35:00,54.7,44.6,30.04,NE,35,0.0,2.7,65,0.00,,---,0.00,cosweather0.1e,2013-02-04 03:35:00,
2013-02-03 19:40:00,54.7,44.6,30.04,NE,35,0.0,2.7,65,0.00,,---,0.00,cosweather0.1e,2013-02-04 03:40:00,
2013-02-03 19:45:00,54.7,44.6,30.04,NE,35,0.0,3.1,65,0.00,,---,0.00,cosweather0.1e,2013-02-04 03:45:00,
2013-02-03 19:50:00,54.7,44.6,30.04,NNE,29,0.0,2.7,65,0.00,,---,0.00,cosweather0.1e,2013-02-04 03:50:00,
2013-02-03 19:55:00,54.5,42.8,30.04,NNE,24,0.0,3.1,64,0.00,,---,0.00,cosweather0.1e,2013-02-04 03:55:00,
2013-02-03 20:00:00,54.3,42.8,30.04,NNE,30,0.0,0.0,65,0.00,,---,0.00,cosweather0.1e,2013-02-04 04:00:00,
2013-02-03 20:05:00,54.3,42.8,30.04,NNE,30,0.0,0.0,65,0.00,,---,0.00,cosweather0.1e,2013-02-04 04:05:00,
2013-02-03 20:10:00,54.3,42.8,30.04,NNE,30,0.0,0.0,65,0.00,,---,0.00,cosweather0.1e,2013-02-04 04:10:00,
2013-02-03 20:15:00,54.5,44.6,30.08,NNE,30,0.0,3.1,65,0.00,,---,0.00,cosweather0.1e,2013-02-04 04:15:00,
2013-02-03 20:20:00,54.3,42.8,30.08,NNE,30,0.0,0.0,65,0.00,,---,0.00,cosweather0.1e,2013-02-04 04:20:00,
2013-02-03 20:25:00,54.1,42.8,30.08,NNE,30,0.0,0.0,65,0.00,,---,0.00,cosweather0.1e,2013-02-04 04:25:00,
2013-02-03 20:30:00,54.1,42.8,30.08,NNE,30,0.0,0.0,65,0.00,,---,0.00,cosweather0.1e,2013-02-04 04:30:00,
2013-02-03 20:35:00,54.3,42.8,30.08,NNE,30,0.0,0.0,65,0.00,,---,0.00,cosweather0.1e,2013-02-04 04:35:00,
2013-02-03 20:40:00,54.3,42.8,30.08,NNE,28,0.0,0.0,65,0.00,,---,0.00,cosweather0.1e,2013-02-04 04:40:00,
2013-02-03 20:45:00,54.0,42.8,30.04,NNE,25,0.0,2.7,65,0.00,,---,0.00,cosweather0.1e,2013-02-04 04:45:00,
2013-02-03 20:50:00,53.8,42.8,30.04,NNE,25,0.0,0.0,65,0.00,,---,0.00,cosweather0.1e,2013-02-04 04:50:00,
2013-02-03 20:55:00,53.8,42.8,30.04,NNE,26,0.0,0.0,66,0.00,,---,0.00,cosweather0.1e,2013-02-04 04:55:00,
2013-02-03 21:02:00,53.6,42.8,30.04,NNE,20,0.0,0.0,66,0.00,,---,0.00,cosweather0.1e,2013-02-04 05:02:00,
2013-02-03 21:03:00,53.6,42.8,30.04,NNE,20,0.0,0.0,66,0.00,,---,0.00,cosweather0.1e,2013-02-04 05:03:00,
2013-02-03 21:08:00,53.6,42.8,30.04,NNE,20,0.0,0.0,66,0.00,,---,0.00,cosweather0.1e,2013-02-04 05:08:00,
2013-02-03 21:13:00,53.4,42.8,30.04,NNE,21,0.0,0.0,66,0.00,,---,0.00,cosweather0.1e,2013-02-04 05:13:00,
2013-02-03 21:18:00,53.4,42.8,30.04,NNE,20,0.0,0.0,66,0.00,,---,0.00,cosweather0.1e,2013-02-04 05:18:00,
2013-02-03 21:23:00,53.4,42.8,30.04,NNE,20,0.0,0.0,66,0.00,,---,0.00,cosweather0.1e,2013-02-04 05:23:00,
2013-02-03 21:28:00,53.2,42.8,30.04,NNE,20,0.0,0.0,66,0.00,,---,0.00,cosweather0.1e,2013-02-04 05:28:00,
2013-02-03 21:33:00,53.1,42.8,30.04,NNE,20,0.0,0.0,66,0.00,,---,0.00,cosweather0.1e,2013-02-04 05:33:00,
2013-02-03 21:38:00,53.1,42.8,30.04,North,11,0.0,0.0,66,0.00,,---,0.00,cosweather0.1e,2013-02-04 05:38:00,
2013-02-03 21:43:00,53.1,42.8,30.04,North,11,0.0,0.0,67,0.00,,---,0.00,cosweather0.1e,2013-02-04 05:43:00,
2013-02-03 21:48:00,53.1,42.8,30.08,North,11,0.0,0.0,67,0.00,,---,0.00,cosweather0.1e,2013-02-04 05:48:00,
2013-02-03 21:53:00,53.1,42.8,30.08,North,11,0.0,0.0,67,0.00,,---,0.00,cosweather0.1e,2013-02-04 05:53:00,
2013-02-03 21:58:00,53.1,42.8,30.08,North,11,0.0,0.0,67,0.00,,---,0.00,cosweather0.1e,2013-02-04 05:58:00,
2013-02-03 22:03:00,53.1,42.8,30.08,North,11,0.0,0.0,67,0.00,,---,0.00,cosweather0.1e,2013-02-04 06:03:00,
2013-02-03 22:08:00,53.1,42.8,30.08,North,11,0.0,0.0,67,0.00,,---,0.00,cosweather0.1e,2013-02-04 06:08:00,
2013-02-03 22:13:00,52.9,42.8,30.08,North,11,0.0,0.0,67,0.00,,---,0.00,cosweather0.1e,2013-02-04 06:13:00,
2013-02-03 22:18:00,52.7,42.8,30.04,North,11,0.0,0.0,67,0.00,,---,0.00,cosweather0.1e,2013-02-04 06:18:00,
2013-02-03 22:23:00,52.5,41.0,30.04,WNW,296,0.0,3.6,67,0.00,,---,0.00,cosweather0.1e,2013-02-04 06:23:00,
2013-02-03 22:28:00,52.3,41.0,30.04,NNW,329,0.0,0.0,67,0.00,,---,0.00,cosweather0.1e,2013-02-04 06:28:00,
2013-02-03 22:33:00,52.3,41.0,30.04,North,357,0.0,0.0,67,0.00,,---,0.00,cosweather0.1e,2013-02-04 06:33:00,
2013-02-03 22:38:00,52.2,41.0,30.04,North,357,0.0,0.0,67,0.00,,---,0.00,cosweather0.1e,2013-02-04 06:38:00,
2013-02-03 22:43:00,52.0,41.0,30.04,North,357,0.0,0.0,67,0.00,,---,0.00,cosweather0.1e,2013-02-04 06:43:00,
2013-02-03 22:48:00,52.0,41.0,30.08,North,357,0.0,0.0,67,0.00,,---,0.00,cosweather0.1e,2013-02-04 06:48:00,
2013-02-03 22:53:00,51.8,41.0,30.08,North,357,0.0,0.0,67,0.00,,---,0.00,cosweather0.1e,2013-02-04 06:53:00,
2013-02-03 22:58:00,51.8,41.0,30.08,North,6,0.0,2.2,68,0.00,,---,0.00,cosweather0.1e,2013-02-04 06:58:00,
2013-02-03 23:03:00,51.8,41.0,30.08,North,6,0.0,0.0,68,0.00,,---,0.00,cosweather0.1e,2013-02-04 07:03:00,
2013-02-03 23:08:00,51.8,42.8,30.08,North,6,0.0,0.0,69,0.00,,---,0.00,cosweather0.1e,2013-02-04 07:08:00,
2013-02-03 23:13:00,51.8,42.8,30.08,North,6,0.0,0.0,69,0.00,,---,0.00,cosweather0.1e,2013-02-04 07:13:00,
2013-02-03 23:18:00,51.8,42.8,30.08,North,6,0.0,0.0,69,0.00,,---,0.00,cosweather0.1e,2013-02-04 07:18:00,
2013-02-03 23:23:00,51.6,42.8,30.08,North,6,0.0,0.0,69,0.00,,---,0.00,cosweather0.1e,2013-02-04 07:23:00,
2013-02-03 23:29:00,51.4,42.8,30.08,North,6,0.0,0.0,69,0.00,,---,0.00,cosweather0.1e,2013-02-04 07:29:00,
2013-02-03 23:34:00,51.3,42.8,30.08,NNE,15,0.0,3.6,70,0.00,,---,0.00,cosweather0.1e,2013-02-04 07:34:00,
2013-02-03 23:39:00,50.9,42.8,30.08,NNE,30,0.0,4.0,70,0.00,,---,0.00,cosweather0.1e,2013-02-04 07:39:00,
2013-02-03 23:44:00,50.9,42.8,30.08,NNE,30,0.0,0.0,71,0.00,,---,0.00,cosweather0.1e,2013-02-04 07:44:00,
2013-02-03 23:49:00,50.7,41.0,30.04,NNE,21,0.0,0.0,72,0.00,,---,0.00,cosweather0.1e,2013-02-04 07:49:00,
2013-02-03 23:54:00,50.5,41.0,30.04,NNE,28,0.0,3.1,72,0.00,,---,0.00,cosweather0.1e,2013-02-04 07:54:00,
2013-02-03 23:59:00,50.2,41.0,30.04,NNE,28,0.0,4.9,73,0.00,,---,0.00,cosweather0.1e,2013-02-04 07:59:00,